Galena, Illinois, United States (61036)
Lat: 42.42N, Lon: 90.43W
Wx Zone: ILZ001
Local Info
Past Weather Observations for Today

NOTE: This archive is for the closest National Weather Service station to Galena. Information may differ from the station used for current weather conditions.

Click here for Long-term Archive

Time Weather Temperature Dewpoint Humidity Pressure Winds Precip Visibility
11:19
Overcast
Fog And Mist
79°F / 26°C 75°F / 24°C 89% 29.98 in
(1015 mb)
SSE 6.9 mph
(SSE 11 kph)
- 3SM
10:53
Overcast
Fog And Mist
77°F / 25°C 75°F / 24°C 94% 29.98 in
(1015 mb)
SSE 4.6 mph
(SSE 7 kph)
- 3SM
10:46
Overcast
Fog And Mist
77°F / 25°C 75°F / 24°C 94% 29.98 in
(1015 mb)
Calm - 3SM
10:05
Overcast
Fog And Mist
75°F / 24°C 75°F / 24°C 100% 29.98 in
(1015 mb)
S 5.8 mph
(S 9 kph)
- 2SM
09:53
Overcast
75°F / 24°C 73°F / 23°C 94% 29.98 in
(1015 mb)
S 4.6 mph
(S 7 kph)
-
08:53
Overcast
75°F / 24°C 75°F / 24°C 100% 29.95 in
(1014 mb)
Calm -
07:53
Overcast
73°F / 23°C 73°F / 23°C 100% 29.95 in
(1014 mb)
SE 4.6 mph
(SE 7 kph)
-
06:53
Mostly Cloudy
73°F / 23°C 73°F / 23°C 100% 29.92 in
(1013 mb)
ENE 4.6 mph
(ENE 7 kph)
-
06:11
Overcast
72°F / 22°C 72°F / 22°C 100% 29.92 in
(1013 mb)
Calm -
05:53
Overcast
72°F / 22°C 72°F / 22°C 100% 29.95 in
(1014 mb)
SE 4.6 mph
(SE 7 kph)
-
05:03
Overcast
72°F / 22°C 72°F / 22°C 100% 29.92 in
(1013 mb)
Calm -
04:53
Overcast
72°F / 22°C 72°F / 22°C 100% 29.89 in
(1012 mb)
E 3.5 mph
(E 6 kph)
-
04:22
Mostly Cloudy
72°F / 22°C 72°F / 22°C 100% 29.92 in
(1013 mb)
ENE 3.5 mph
(ENE 6 kph)
-
04:14
Partly Cloudy
72°F / 22°C 72°F / 22°C 100% 29.92 in
(1013 mb)
ENE 4.6 mph
(ENE 7 kph)
-
03:53
Partly Cloudy
72°F / 22°C 72°F / 22°C 100% 29.92 in
(1013 mb)
Calm -
02:53
Partly Cloudy
72°F / 22°C 72°F / 22°C 100% 29.92 in
(1013 mb)
Variable 3.5 mph
(Variable 6 kph)
-
02:37
Partly Cloudy
72°F / 22°C 72°F / 22°C 100% 29.92 in
(1013 mb)
Calm -
02:28
Mostly Cloudy
72°F / 22°C 72°F / 22°C 100% 29.92 in
(1013 mb)
Calm -
02:02
Partly Cloudy
72°F / 22°C 72°F / 22°C 100% 29.89 in
(1012 mb)
Calm -
01:53
Mostly Cloudy
72°F / 22°C 72°F / 22°C 100% 29.89 in
(1012 mb)
SE 3.5 mph
(SE 6 kph)
-
01:48
Mostly Cloudy
72°F / 22°C 72°F / 22°C 100% 29.89 in
(1012 mb)
Calm -
01:14
Mostly Cloudy
72°F / 22°C 72°F / 22°C 100% 29.89 in
(1012 mb)
E 4.6 mph
(E 7 kph)
-
01:06
Mostly Cloudy
72°F / 22°C 72°F / 22°C 100% 29.89 in
(1012 mb)
ENE 3.5 mph
(ENE 6 kph)
-
00:53
Partly Cloudy
72°F / 22°C 72°F / 22°C 100% 29.89 in
(1012 mb)
Calm -
Time Weather Temperature Dewpoint Humidity Pressure Winds Precip Visibility


Weather for websites

WeatherForYou.com, LLC is not responsible for any damages or problems caused by this service. Current weather conditions are obtained from the closest station including government and personal stations which may have varying degrees of accuracy. Weather forecasts are derived from the NOAA NDFD. Like all things, this site belongs to Jesus Christ... He just trusts me to maintain it. If you have any questions or comments email webmaster@weatherforyou.com

Copyright © 2014, WeatherForYou.com LLC. All rights reserved.